TELSTAR 14R

Last updated on Fri Dec 19 2025 00:02:50 GMT+0000 (Coordinated Universal Time)

1 37602U 11021A 25352.51644488 -.00000255 00000+0 00000+0 0 9991 2 37602 0.0371 278.0196 0001947 41.1389 251.1451 1.00272216 54022
UTC large
Height (km)
Speed (km/s)
/
Latitude / Longitude
Inclination (degrees)
Orbital Period (minutes)
Azimuth
Elevation
Range (km)
Doppler Factor

Next 0 passes for location: London (51.5072 / 0.1276)

Sorry there are no passes over London.